Other Surface Observations
Issued by NWS

Home | Current Version | Previous Version | Text Only | Print | Product List | Glossary On
Versions: 1 2 3 4 5 6 7 8 9 10 11 12 13 14 15 16 17 18 19 20 21 22 23 24 25 26 27 28 29 30 31 32 33 34 35 36 37 38 39 40 41 42 43 44 45 46 47 48 49 50
000
SXUS52 KTAE 310018
OSOTAE
OSOTAE
North Florida/South Alabama/Southwest Georgia Weather Roundup
National Weather Service Tallahassee Florida
800 PM EDT SUN AUG 30 2015

Note: "fair" indicates few or no clouds below 12,000 feet with no
significant weather and/or obstructions to visibility.

!FLZ017-115-028-034-025-310100
...North Florida...

CITY           SKY/WX    TMP DP  RH WIND       PRES   REMARKS
TALLAHASSEE    PTCLDY    88  70  55 N3        29.99R HX  93
APALACHICOLA   CLEAR     84  73  69 CALM      29.97R HX  90
PERRY          MOCLDY    86  59  39 CALM      29.98S
CROSS CITY       N/A     79  74  84 MISG      29.99S
JACKSONVILLE   LGT RAIN  77  75  93 SE6       30.02R
$$

!FLZ112-006-005-002-011-310100
...Florida Panhandle...

CITY           SKY/WX    TMP DP  RH WIND       PRES   REMARKS
MARIANNA       CLEAR     83  70  64 NE7       29.99R
BONIFAY        FAIR      80  72  76 CALM      29.99R
PANAMA CITY NW FAIR      84  70  62 N5        29.97R
TYNDALL AFB    CLEAR     84  73  70 W7        29.98R HX  90
TYND DRONE APT FAIR      83  74  75 SE6       29.98R
DE FUNIAK SPR  FAIR      83  71  66 N5        29.99S
EGLIN AFB      PTCLDY    86  70  58 N2        29.97S HX  91
DESTIN         PTCLDY    86  72  62 CALM      29.97S HX  92
HURLBURT       CLEAR     85  69  58 NW2       29.96S
CRESTVIEW      PTCLDY    82  74  76 CALM      30.00S
PENSACOLA      CLEAR     84  71  65 W6        29.97S
$$

!ALZ063-066-310100
...South Alabama...

CITY           SKY/WX    TMP DP  RH WIND       PRES   REMARKS
DOTHAN         CLEAR     82  71  69 NE5       30.04R
OZARK CAIRNS     N/A     85  67  56 NW6       30.00R
FT RUCKER HELI CLEAR     83  66  56 N5        29.99R
RUCKER HELI 3  FAIR      82  68  62 NW2       30.02R
RUCKER HELI 2  NOT AVBL
FLORALA APT    CLEAR     81  70  69 N3        30.01S
ANDALUSIA      CLEAR     86  70  58 NE3       30.00R HX  90
TROY           CLEAR     82  67  60 NW3       30.02R
EUFALA         FAIR      80  73  79 CALM      30.00R
MOBILE         PTCLDY    82  67  60 SW7       29.99S
$$

!GAZ120>161-310100
...Southwest and South Central Georgia...

CITY           SKY/WX    TMP DP  RH WIND       PRES   REMARKS
THOMASVILLE    FAIR      81  73  78 CALM      30.01R
BAINBRIDGE     CLEAR     84  68  58 CALM      30.00R
MOODY AFB      CLEAR     81  74  78 E10       30.00R
VALDOSTA       MOCLDY    84  75  74 SE16G22   30.01R HX  92
MOULTRIE       MOCLDY    84  70  61 NE3       30.01R
BLAKELY        CLEAR     82  73  74 CALM      30.01R
ALBANY         CLEAR     85  69  58 N3        30.02S
TIFTON         MOCLDY    76  65  68 NE6       30.02R
FITZGERALD     FAIR      78  76  93 E6        30.05S
CORDELE        FAIR      83  76  80 CALM      30.04R HX  90
AMERICUS       FAIR      79  70  73 NE7       30.05R
HOMERVILLE     FAIR      81  77  89 SE9       30.03S
$$

!GMZ750-755-770-775-310100
...Coastal and Buoy Obs...

STATION/POSITION TIME  TEMP    WIND        PRES    VSBY  WAVE
                       AIR SEA DIR/SP/G                  HT/PER
                 (UTC) (F)     (DEG/KT/KT) (MB)    (MI)  (FT/S)
KEATON BEACH     0000   84      90/ 13/ 14 1015.4R
CEDAR KEY        0000   80      60/  9/ 11 1015.8R
C TOWER          0000   84     270/  2/  2 1015.1R
APALACHICOLA BUO 2350   84 86   20/ 10/ 14 1015.0R         1/ 4
PANAMA CITY BUOY 2350   83 86   40/  8/ 10 1015.4S         2/ 5
MOBILE BUOY      2350   83 88  300/  4/  6 1015.6F         1/ 4
ORANGE BCH AL BU 2350   84 86  270/  6/  8 1014.6F         1/ 4
$$



USA.gov is the U.S. government's official web portal to all federal, state and local government web resources and services.